TimeCDT,TemperatureF,Dew PointF,Humidity,Sea Level PressureIn,VisibilityMPH,Wind Direction,Wind SpeedMPH,Gust SpeedMPH,PrecipitationIn,Events,Conditions,WindDirDegrees,DateUTC
12:56 AM,55.9,43.0,62,29.88,10.0,South,10.4,-,N/A,,Clear,180,2013-10-08 05:56:00
1:56 AM,57.9,41.0,53,29.86,10.0,South,12.7,19.6,N/A,,Clear,180,2013-10-08 06:56:00
2:56 AM,57.0,41.0,55,29.85,10.0,South,9.2,-,N/A,,Clear,180,2013-10-08 07:56:00
3:56 AM,55.9,39.9,55,29.83,10.0,South,12.7,-,N/A,,Clear,180,2013-10-08 08:56:00
4:56 AM,55.0,39.9,57,29.83,10.0,South,12.7,-,N/A,,Partly Cloudy,180,2013-10-08 09:56:00
5:56 AM,54.0,39.9,59,29.83,10.0,South,15.0,-,N/A,,Partly Cloudy,180,2013-10-08 10:56:00
6:56 AM,53.1,39.9,61,29.84,10.0,South,13.8,-,N/A,,Partly Cloudy,180,2013-10-08 11:56:00
7:56 AM,53.1,41.0,64,29.84,10.0,South,13.8,-,N/A,,Scattered Clouds,170,2013-10-08 12:56:00
8:56 AM,57.0,41.0,55,29.83,10.0,South,16.1,24.2,N/A,,Mostly Cloudy,180,2013-10-08 13:56:00
9:56 AM,60.1,41.0,49,29.83,10.0,South,18.4,24.2,N/A,,Scattered Clouds,190,2013-10-08 14:56:00
10:56 AM,64.0,42.1,45,29.80,10.0,South,19.6,29.9,N/A,,Scattered Clouds,190,2013-10-08 15:56:00
11:56 AM,71.1,42.1,35,29.78,10.0,SSW,21.9,33.4,N/A,,Mostly Cloudy,200,2013-10-08 16:56:00
12:56 PM,71.1,42.1,35,29.76,10.0,South,23.0,34.5,N/A,,Mostly Cloudy,190,2013-10-08 17:56:00
1:56 PM,75.9,42.1,30,29.74,10.0,South,23.0,31.1,N/A,,Overcast,190,2013-10-08 18:56:00
2:56 PM,75.0,41.0,29,29.73,10.0,South,24.2,31.1,N/A,,Mostly Cloudy,180,2013-10-08 19:56:00
3:56 PM,77.0,41.0,28,29.73,10.0,South,21.9,32.2,N/A,,Mostly Cloudy,190,2013-10-08 20:56:00
4:56 PM,75.9,41.0,29,29.74,10.0,South,23.0,34.5,N/A,,Mostly Cloudy,190,2013-10-08 21:56:00
5:56 PM,75.0,43.0,32,29.75,10.0,South,13.8,26.5,N/A,,Mostly Cloudy,190,2013-10-08 22:56:00
6:56 PM,72.0,43.0,35,29.78,10.0,South,13.8,20.7,N/A,,Mostly Cloudy,180,2013-10-08 23:56:00
7:56 PM,69.1,44.1,40,29.80,10.0,South,12.7,-,N/A,,Mostly Cloudy,170,2013-10-09 00:56:00
8:56 PM,68.0,44.1,42,29.81,10.0,South,12.7,-,N/A,,Mostly Cloudy,180,2013-10-09 01:56:00
9:56 PM,66.0,45.0,47,29.83,10.0,South,18.4,-,N/A,,Mostly Cloudy,180,2013-10-09 02:56:00
10:56 PM,64.9,44.1,47,29.84,10.0,South,17.3,28.8,N/A,,Mostly Cloudy,180,2013-10-09 03:56:00
11:56 PM,64.0,44.1,48,29.85,10.0,South,17.3,25.3,N/A,,Mostly Cloudy,180,2013-10-09 04:56:00